Find KUIPER-00499

NORAD ID: 68881 Int'l Des: 2026-095T Owner: KUIP Country: US Constellation: amazon-leo operational
LEOCIRCULAR

現在のビュー

3D地球を読み込み中...

About KUIPER-00499

KUIPER-00499 (NORAD 68881) is a amazon-leo constellation satellite launched Apr 28, 2026 by KUIP of US. It operates in LEO, CIRCULAR orbit with a mass of 490.00 kg.

KUIPER-00499について

説明を読み込み中...

次回通過

Passes for default location (London). Set your location on the main map for personalized predictions.

高度履歴

Loading altitude history...

軌道要素

1 68881U 26095T 26166.52230065 .00017355 00000-0 51696-3 0 9998
2 68881 51.8694 251.0868 0007150 306.1717 53.8607 15.34758584 7460
Epoch: Jun 15, 2026 • Age: 18 hours

現在のステータス

高度 475.7 km
速度 7.63 km/s
衛星直下点 -50.08°S, 129.18°E
打ち上げ日 Apr 28, 2026
運用期間 0.1 years
タイプ internet

技術仕様

分類 Payload
質量 490.00 kg
乾燥質量 490.00 kg
総質量 490.00 kg
長さ 1.80 m
直径 0.70 m
スパン 5.00 m
形状 Box + 2 pan
製造者 KUIP
バスタイプ Kuiper
フェーズステータス In Orbit
所有者/国 KUIP/US

Most Searched